This demonstration page uses our WeatherBlox Daily Observations layout. Learn more.

Left ArrowRight Arrow

39.01783, -85.05884

Hourly Observations for February 4, 2020

Temp ( °F °C ) Dew Point ( °F °C ) Humidity (%) Winds ( mph kmh ) Pressure ( in mb ) Visibility ( mi km ) Precip ( " mm )
12:52 am 00:52 Cloudy 62 16.7 38 3.3 41 41 SW 13 20 29.76 1008 10 16.0934 0 0
1:52 am 01:52 Cloudy 62 16.7 39 3.9 43 43 SW 13 20 29.76 1008 10 16.0934 0 0
2:52 am 02:52 Cloudy 62 16.7 40 4.4 44 44 SSW 12 19 29.77 1008 10 16.0934 0 0
3:52 am 03:52 Cloudy 62 16.7 44 6.7 52 52 SW 12 19 29.78 1008 10 16.0934 0 0
4:52 am 04:52 Cloudy 61 16.1 45 7.2 56 56 SSW 10 17 29.78 1009 10 16.0934 0 0
5:19 am 05:19 Cloudy 60 15.6 48 8.9 65 65 SW 9 15 29.8 1009 10 16.0934 0 0
5:52 am 05:52 Cloudy with Light Rain 60 15.6 50 10 70 70 SW 15 24 29.8 1009 10 16.0934 0.001 0.001
6:52 am 06:52 Cloudy with Light Rain 57 13.9 52 11.1 83 83 SSW 9 15 29.83 1010 9 14.48406 0.001 0.001
7:14 am 07:14 Cloudy with Light Rain 56 13.3 52 11.1 87 87 SSW 13 20 29.84 1010 9 14.48406 0.01 0.254
7:52 am 07:52 Cloudy with Light Rain 55 12.8 52 11.1 90 90 S 14 22 29.83 1010 7 11.26538 0.03 0.762
8:52 am 08:52 Cloudy with Light Rain 55 12.8 52 11.1 90 90 SSW 13 20 29.83 1010 9 14.48406 0.03 0.762
9:52 am 09:52 Cloudy with Light Rain 55 12.8 52 11.1 90 90 S 14 22 29.82 1010 7 11.26538 0.03 0.762
10:52 am 10:52 Cloudy with Light Rain 56 13.3 53 11.7 90 90 SSW 10 17 29.82 1010 8 12.87472 0.01 0.254
11:52 am 11:52 Cloudy with Light Rain 56 13.3 53 11.7 90 90 SSW 10 17 29.8 1009 8 12.87472 0.01 0.254
12:52 pm 12:52 Cloudy with Light Rain 56 13.3 53 11.7 90 90 SW 12 19 29.79 1009 7 11.26538 0.02 0.508
1:40 pm 13:40 Cloudy with Light Rain 57 13.9 54 12.2 90 90 SSW 8 13 29.79 1009 6 9.65604 0.04 1.016
1:52 pm 13:52 Cloudy with Light Rain 57 13.9 55 12.8 93 93 SSW 6 9 29.76 1008 7 11.26538 0.04 1.016
2:15 pm 14:15 Cloudy with Light Rain 56 13.3 54 12.2 93 93 SW 6 9 29.78 1008 8 12.87472 0.01 0.254
2:52 pm 14:52 Cloudy with Light Rain 56 13.3 54 12.2 93 93 SW 5 7 29.76 1008 10 16.0934 0.02 0.508
3:52 pm 15:52 Cloudy 57 13.9 54 12.2 90 90 Calm 29.75 1008 10 16.0934 0.01 0.254
4:52 pm 16:52 Cloudy with Light Rain 51 10.6 48 8.9 89 89 NNW 21 33 29.79 1009 0.5 0.80467 0.001 0.001
5:17 pm 17:17 Cloudy with Light Rain 45 7.2 43 6.1 93 93 N 15 24 29.82 1010 1.75 2.816345 0.01 0.254
5:52 pm 17:52 Cloudy with Light Rain 43 6.1 40 4.4 89 89 N 16 26 29.82 1010 3 4.82802 0.07 1.778
6:52 pm 18:52 Cloudy with Light Rain 39 3.9 37 2.8 93 93 N 16 26 29.86 1011 8 12.87472 0.02 0.508
7:52 pm 19:52 Cloudy with Light Rain 38 3.3 35 1.7 89 89 N 17 28 29.88 1012 7 11.26538 0.02 0.508
8:52 pm 20:52 Cloudy with Light Rain 37 2.8 34 1.1 89 89 NNE 21 33 29.91 1013 10 16.0934 0.02 0.508
9:52 pm 21:52 Cloudy with Light Rain 36 2.2 33 0.6 89 89 NE 20 31 29.93 1013 10 16.0934 0.01 0.254
10:43 pm 22:43 Cloudy with Light Rain 36 2.2 32 0 86 86 NNE 15 24 29.98 1015 10 16.0934 0.01 0.254
10:52 pm 22:52 Cloudy with Drizzle 36 2.2 32 0 86 86 NNE 18 30 29.94 1014 10 16.0934 0.01 0.254
11:52 pm 23:52 Cloudy 35 1.7 31 -0.6 85 85 NE 17 28 29.95 1014 10 16.0934 0.001 0.001

Powered by AerisWeather